Terminal Aerodrome Forecast
Issued by NWS Tampa Bay Area, FL

Home | Current Version | Previous Version | Text Only | Print | Product List | Glossary On
Versions: 1 2 3 4 5 6 7 8 9 10 11 12 13 14 15 16 17 18 19 20 21 22 23 24 25 26 27 28
000
FTUS42 KTBW 061500 AAA
TAFTPA
TAF AMD
KTPA 061500Z 0615/0712 VRB06KT P6SM FEW035 SCT250
     FM061800 31009KT P6SM SCT050 SCT250
     FM070000 36006KT P6SM SCT060 SCT250
     FM070300 VRB03KT P6SM SCT250=

USA.gov is the U.S. government's official web portal to all federal, state and local government web resources and services.